[[{"header":{"parameterUnit":"m.s-1","parameterCategory":1,"la1":30.2991,"la2":30.254,"lo1":-89.0895,"lo2":-89.0444,"dy":0.0017,"dx":0.0017,"nx":28,"ny":28,"refTime":"2025-04-06T09:00:00:Z","depth":0,"parameterNumber":2,"parameterNumberName":"U-component_of_WINDS"},"data":[0,0,0,0,0,0,0,0,0,0,0,0,0,0,0,0,0,0,0,0,0,0,0,0,0,0,0,0,0,0,0,0,0,0,0,0,0,0,0,0,0,0,0,0,0,0,0,0,0,0,0,0,0,0,0,0,0,0,4.6412,4.6414,0,4.6574,4.6576,4.6578,4.6566,4.6564,4.6562,4.6559,4.6727,4.6734,4.674,0,0,0,0,0,0,0,0,0,0,0,0,0,4.6096,4.6102,4.6412,4.6414,4.6416,4.6574,4.6576,4.6578,4.6567,4.6564,4.6561,4.6558,4.6725,4.6733,4.6741,0,0,0,0,0,0,0,0,0,0,0,0,0,4.6243,4.6103,4.6411,4.6429,4.6432,4.6573,4.6576,4.6579,4.6567,4.6564,4.656,4.6557,4.6722,4.6732,4.6742,4.6876,0,0,4.6773,4.6777,0,0,0,0,0,0,0,0,4.6235,4.6255,4.6425,4.6428,4.6432,4.6546,4.6526,4.6678,4.6568,4.6516,4.6559,4.6555,4.667,4.6684,4.6722,4.6884,4.6891,4.6774,4.678,4.6784,4.6787,0,0,0,0,0,0,0,4.6224,4.6248,4.6476,4.6427,4.6432,4.643,4.6447,4.6555,4.6611,4.6521,4.652,4.6539,4.6671,4.6713,4.6726,4.6893,4.6773,4.6782,4.6788,4.6792,4.7175,4.7179,0,0,0,0,0,0,4.621,4.6239,4.6471,4.6481,4.6322,4.6439,4.6458,4.6513,4.661,4.6621,4.6542,4.6538,4.6697,4.6715,4.6732,4.6896,4.6784,4.6793,4.6799,4.7171,4.7176,4.718,0,0,0,0,0,0,4.6203,4.6231,4.6464,4.636,4.639,4.6448,4.6511,4.6518,4.656,4.6627,4.6637,4.6574,4.6695,4.6718,4.6841,4.6902,4.6798,4.6807,4.7166,4.7172,4.7178,4.7225,0,0,0,0,0,0,4.6194,4.6228,4.6279,4.6361,4.6395,4.6569,4.6514,4.6524,4.6577,4.6573,4.6659,4.667,4.6694,4.6826,4.685,4.6914,4.6815,4.7161,4.7169,4.7176,4.7218,4.7232,4.7244,0,0,0,0,0,4.6183,4.6286,4.6282,4.631,4.646,4.6573,4.6592,4.6618,4.6582,4.6634,4.6677,4.6667,4.6891,4.6838,4.6866,4.6933,4.7157,4.7166,4.7175,4.7212,4.7229,4.7243,0,0,0,0,0,0,4.621,4.6297,4.6293,4.6426,4.6492,4.6571,4.6637,4.6634,4.6713,4.6706,4.6735,4.6754,4.6878,4.6918,4.6857,4.7069,4.7019,4.7035,4.7038,4.7055,4.7067,4.7055,4.6823,0,0,0,0,0,4.6231,4.6315,4.6387,4.6497,4.653,4.6578,4.6628,4.6642,4.6712,4.674,4.6792,4.6861,4.6947,4.7003,4.7086,4.7224,4.7243,4.7284,4.7297,4.7307,4.732,4.7398,4.7417,4.7211,4.7211,4.721,0,0,4.6276,4.6334,4.6385,4.6504,4.6557,4.6644,4.6602,4.6695,4.676,4.6754,4.6873,4.6914,4.6993,4.7124,4.7185,4.7162,4.7382,4.7319,4.7327,4.7334,4.7409,4.7429,4.7446,4.7217,4.7216,4.7215,0,0,4.6402,4.6454,4.6552,4.6606,4.6687,4.6718,4.6742,4.6822,4.6848,4.6968,4.6966,4.7044,4.7192,4.7248,4.7296,4.7446,4.744,4.7472,4.7539,4.7614,4.763,4.7645,4.7699,4.7718,4.7485,4.7485,4.7485,0,4.6448,4.6578,4.6603,4.6698,4.675,4.6749,4.6849,4.6901,4.7004,4.7041,4.7014,4.72,4.7253,4.7398,4.7434,4.7473,4.7502,4.7462,4.7626,4.7641,4.7655,4.7706,4.7727,4.7488,4.7488,4.7488,4.7487,0,4.6631,4.6722,4.6791,4.6891,4.6952,4.7049,4.7089,4.7148,4.7157,4.7191,4.7314,4.7378,4.7474,4.751,4.752,4.7657,4.764,4.7619,4.757,4.7677,4.7726,4.7746,4.7493,4.7492,4.7491,4.749,0,0,4.6778,4.6891,4.6916,4.6962,4.7052,4.7123,4.722,4.7314,4.7364,4.7436,4.7519,4.7645,4.7626,4.7681,4.7697,4.7763,4.7879,4.7734,4.7737,4.7759,4.8035,4.805,4.8072,4.7875,4.7879,4.7882,4.8028,0,4.6914,4.7085,4.7111,4.7263,4.7348,4.7348,4.7433,4.7498,4.7534,4.7611,4.7651,4.7739,4.7708,4.7741,4.7806,4.7851,4.7934,4.7841,4.7954,4.7958,4.7934,4.8098,4.8114,4.8249,4.8048,4.8051,4.8053,0,4.7095,4.7171,4.7331,4.741,4.7447,4.7523,4.7611,4.7685,4.7759,4.7781,4.7842,4.7851,4.7954,4.79,4.8043,4.7978,4.8026,4.8056,4.8061,4.8073,4.8012,4.8114,4.8292,4.8312,4.8084,4.8081,4.8079,0,4.7186,4.733,4.7444,4.7483,4.7578,4.7632,4.7674,4.7744,4.78,4.7878,4.7914,4.8003,4.8052,4.8121,4.8154,4.8112,4.8295,4.8244,4.8316,4.8315,4.8354,4.8351,4.8542,4.8385,4.8385,4.8384,4.8384,0,4.7335,4.7433,4.7487,4.7557,4.7668,4.7697,4.7806,4.7847,4.791,4.7989,4.7995,4.807,4.8109,4.819,4.8217,4.8331,4.8353,4.8374,4.838,4.8373,4.8371,4.8405,4.8397,4.839,4.8389,4.8388,4.8387,0,4.7456,4.7495,4.762,4.77,4.7723,4.7801,4.7869,4.7939,4.7974,4.8074,4.81,4.8155,4.8251,4.8291,4.8409,4.8427,4.8558,4.8557,4.8533,4.8534,4.8604,4.8597,4.8824,4.8856,4.8678,4.8679,4.8681,0,4.7548,4.7623,4.7711,4.7764,4.7808,4.7894,4.795,4.7983,4.8041,4.8132,4.8191,4.8286,4.8364,4.8517,4.8569,4.8659,4.8661,4.8734,4.8674,4.8666,4.8662,4.8657,4.8665,4.8745,4.8747,4.8748,4.8749,0,4.7708,4.7724,4.7804,4.7892,4.7959,4.803,4.8099,4.8143,4.8186,4.8252,4.835,4.841,4.853,4.8626,4.8719,4.8764,4.8765,4.8768,4.8789,4.8783,4.8766,4.8777,4.8563,4.8762,4.8761,4.876,4.8759,4.8759,4.7817,4.7884,4.7957,4.8047,4.8102,4.8167,4.8236,4.828,4.8362,4.8462,4.8477,4.8581,4.8655,4.8781,4.8829,4.8912,4.8894,4.8925,4.8933,4.894,4.8945,4.8753,4.893,4.8929,4.8929,4.8929,4.8929,0,4.7977,4.8024,4.8106,4.8203,4.8274,4.8268,4.8345,4.8405,4.8497,4.8565,4.8642,4.8755,4.8847,4.8907,4.9001,4.9056,4.9059,4.908,4.9076,4.9086,4.8956,4.8928,4.9076,4.9076,4.9076,4.9076,4.9076,4.9076,4.8069,4.8183,4.8208,4.835,4.8397,4.8498,4.8543,4.8603,4.8658,4.8784,4.886,4.8898,4.8964,4.9063,4.9148,4.9163,4.9198,4.922,4.9234,4.9111,4.9095,4.9081,4.9055,4.9227,4.9227,4.9358,4.9359,4.936]},{"header":{"parameterUnit":"m.s-1","parameterCategory":1,"la1":30.2991,"la2":30.254,"lo1":-89.0895,"lo2":-89.0444,"dy":0.0017,"dx":0.0017,"nx":28,"ny":28,"refTime":"2025-04-06T09:00:00:Z","depth":0,"parameterNumber":3,"parameterNumberName":"V-component_of_WINDS"},"data":[0,0,0,0,0,0,0,0,0,0,0,0,0,0,0,0,0,0,0,0,0,0,0,0,0,0,0,0,0,0,0,0,0,0,0,0,0,0,0,0,0,0,0,0,0,0,0,0,0,0,0,0,0,0,0,0,0,0,-5.3776,-5.3777,0,-5.3861,-5.3862,-5.3863,-5.3805,-5.3803,-5.38,-5.3798,-5.3881,-5.3885,-5.389,0,0,0,0,0,0,0,0,0,0,0,0,0,-5.356,-5.3564,-5.3776,-5.3777,-5.3778,-5.3861,-5.3862,-5.3863,-5.3806,-5.3803,-5.38,-5.3797,-5.3879,-5.3885,-5.389,0,0,0,0,0,0,0,0,0,0,0,0,0,-5.365,-5.3566,-5.3776,-5.376,-5.3759,-5.3861,-5.3862,-5.3864,-5.3807,-5.3803,-5.3799,-5.3795,-5.3877,-5.3884,-5.3891,-5.4012,0,0,-5.3912,-5.3915,0,0,0,0,0,0,0,0,-5.3645,-5.3658,-5.3761,-5.3761,-5.376,-5.3819,-5.3816,-5.3913,-5.3808,-5.3788,-5.3798,-5.3793,-5.3863,-5.3871,-5.3895,-5.4016,-5.4019,-5.3913,-5.3917,-5.392,-5.3922,0,0,0,0,0,0,0,-5.3639,-5.3654,-5.3809,-5.3762,-5.3762,-5.3747,-5.3755,-5.3834,-5.3846,-5.379,-5.3786,-5.3797,-5.3862,-5.3889,-5.3897,-5.4021,-5.3913,-5.3919,-5.3923,-5.3926,-5.4244,-5.4248,0,0,0,0,0,0,-5.3635,-5.3649,-5.3807,-5.3812,-5.3692,-5.3754,-5.3763,-5.3804,-5.3845,-5.3848,-5.38,-5.3794,-5.3879,-5.3889,-5.3899,-5.4044,-5.392,-5.3927,-5.3931,-5.424,-5.4245,-5.425,0,0,0,0,0,0,-5.363,-5.3649,-5.3803,-5.373,-5.3748,-5.3762,-5.3808,-5.3808,-5.3834,-5.3853,-5.3855,-5.3825,-5.3876,-5.389,-5.3985,-5.4046,-5.393,-5.3936,-5.4235,-5.4242,-5.4248,-5.4333,0,0,0,0,0,0,-5.3624,-5.3648,-5.3695,-5.3731,-5.3752,-5.3889,-5.3812,-5.3812,-5.3847,-5.384,-5.3877,-5.388,-5.3874,-5.3975,-5.3992,-5.4053,-5.3941,-5.423,-5.4238,-5.4246,-5.4325,-5.4342,-5.4356,0,0,0,0,0,-5.3617,-5.3715,-5.3698,-5.3717,-5.3812,-5.3892,-5.3904,-5.3897,-5.3852,-5.3899,-5.3911,-5.3879,-5.4037,-5.3985,-5.4003,-5.4068,-5.4226,-5.4236,-5.4245,-5.4318,-5.4338,-5.4356,0,0,0,0,0,0,-5.3684,-5.3719,-5.3701,-5.3814,-5.3851,-5.3882,-5.3941,-5.3918,-5.3968,-5.3959,-5.3946,-5.3955,-5.4054,-5.4071,-5.4012,-5.4187,-5.4124,-5.4138,-5.4173,-5.4192,-5.4208,-5.4201,-5.3947,0,0,0,0,0,-5.3712,-5.3776,-5.3803,-5.39,-5.3919,-5.3927,-5.3962,-5.3953,-5.399,-5.4005,-5.4024,-5.4061,-5.4118,-5.4156,-5.421,-5.4327,-5.4334,-5.4381,-5.4396,-5.4409,-5.4421,-5.4483,-5.4504,-5.4282,-5.4282,-5.4281,0,0,-5.377,-5.3798,-5.3838,-5.3914,-5.3941,-5.4007,-5.3941,-5.4012,-5.406,-5.4015,-5.4107,-5.4122,-5.4162,-5.4268,-5.4316,-5.4285,-5.4484,-5.4421,-5.4431,-5.4436,-5.4495,-5.4516,-5.4535,-5.4288,-5.4287,-5.4286,0,0,-5.391,-5.3937,-5.4021,-5.405,-5.4094,-5.4098,-5.4119,-5.4154,-5.4163,-5.4255,-5.4223,-5.4279,-5.4379,-5.4408,-5.4436,-5.4588,-5.4559,-5.4606,-5.4686,-5.4748,-5.4765,-5.4781,-5.4834,-5.4853,-5.4617,-5.4618,-5.4618,0,-5.3976,-5.4075,-5.4066,-5.4141,-5.4175,-5.4139,-5.4223,-5.4252,-5.431,-5.4333,-5.4298,-5.4423,-5.4447,-5.4559,-5.4597,-5.4621,-5.4642,-5.4601,-5.4764,-5.4779,-5.4793,-5.4844,-5.4864,-5.4623,-5.4622,-5.4622,-5.4621,0,-5.4154,-5.4223,-5.4285,-5.4344,-5.4384,-5.4463,-5.4466,-5.4508,-5.4496,-5.4504,-5.4598,-5.4626,-5.4685,-5.4711,-5.4699,-5.4822,-5.4801,-5.4765,-5.4701,-5.482,-5.4867,-5.4887,-5.463,-5.4629,-5.4627,-5.4626,0,0,-5.4337,-5.4391,-5.4414,-5.444,-5.4486,-5.4538,-5.4615,-5.4674,-5.471,-5.4752,-5.4815,-5.4901,-5.4868,-5.49,-5.4891,-5.4945,-5.5063,-5.4902,-5.4902,-5.493,-5.5199,-5.5225,-5.5248,-5.5045,-5.5048,-5.5051,-5.5195,0,-5.4479,-5.4614,-5.461,-5.4736,-5.4799,-5.4766,-5.4833,-5.4867,-5.4877,-5.4931,-5.4941,-5.5002,-5.4954,-5.4973,-5.5025,-5.5037,-5.5116,-5.5027,-5.5102,-5.5105,-5.5093,-5.5273,-5.5301,-5.5436,-5.5214,-5.5217,-5.5219,0,-5.4662,-5.4711,-5.4844,-5.488,-5.4906,-5.4967,-5.5021,-5.5073,-5.5111,-5.5114,-5.5151,-5.5134,-5.521,-5.5145,-5.525,-5.519,-5.522,-5.5231,-5.5236,-5.5242,-5.5169,-5.5283,-5.5479,-5.5499,-5.5249,-5.5246,-5.5244,0,-5.4781,-5.4881,-5.4973,-5.4997,-5.5041,-5.5085,-5.5105,-5.5139,-5.5175,-5.5222,-5.5245,-5.53,-5.533,-5.5372,-5.5369,-5.5323,-5.5476,-5.5411,-5.548,-5.548,-5.5513,-5.5511,-5.5715,-5.5534,-5.5534,-5.5533,-5.5533,0,-5.494,-5.5022,-5.5028,-5.5084,-5.5175,-5.5169,-5.5259,-5.5274,-5.5306,-5.5364,-5.5339,-5.5393,-5.5387,-5.5442,-5.5441,-5.5528,-5.5541,-5.5545,-5.5544,-5.5547,-5.5547,-5.5567,-5.5557,-5.5539,-5.5537,-5.5536,-5.5535,0,-5.5088,-5.5096,-5.5194,-5.5229,-5.524,-5.5305,-5.5334,-5.5387,-5.5395,-5.547,-5.5486,-5.5499,-5.5562,-5.5564,-5.5637,-5.5636,-5.5742,-5.573,-5.5729,-5.5727,-5.5795,-5.5789,-5.602,-5.6049,-5.5849,-5.5851,-5.5853,0,-5.5189,-5.5252,-5.5294,-5.5332,-5.5355,-5.5416,-5.5453,-5.5449,-5.5489,-5.5537,-5.5584,-5.5646,-5.5695,-5.5798,-5.5812,-5.5867,-5.5856,-5.5933,-5.5864,-5.5866,-5.5857,-5.5853,-5.5859,-5.5946,-5.5949,-5.595,-5.5952,0,-5.5366,-5.5366,-5.5421,-5.5478,-5.5524,-5.5568,-5.5608,-5.5641,-5.5641,-5.5686,-5.5752,-5.579,-5.5865,-5.5926,-5.598,-5.5999,-5.5976,-5.5974,-5.5993,-5.5996,-5.5993,-5.5995,-5.5765,-5.5968,-5.5967,-5.5965,-5.5965,-5.5964,-5.5493,-5.5547,-5.5586,-5.5648,-5.5678,-5.5717,-5.5769,-5.5784,-5.5839,-5.5901,-5.5895,-5.5967,-5.6003,-5.6073,-5.6098,-5.6153,-5.6126,-5.6154,-5.6161,-5.6167,-5.6175,-5.5985,-5.6163,-5.6163,-5.6162,-5.6162,-5.6161,0,-5.5668,-5.5691,-5.5749,-5.5808,-5.5856,-5.5832,-5.5876,-5.5918,-5.5982,-5.6019,-5.6068,-5.6143,-5.6202,-5.6222,-5.6279,-5.632,-5.631,-5.6335,-5.6331,-5.6336,-5.6195,-5.6173,-5.6342,-5.6341,-5.6341,-5.6341,-5.6341,-5.6341,-5.5765,-5.5856,-5.5861,-5.5966,-5.5988,-5.6061,-5.6088,-5.6123,-5.6152,-5.6238,-5.6287,-5.63,-5.633,-5.6389,-5.6442,-5.6446,-5.6468,-5.6497,-5.6496,-5.6364,-5.6346,-5.6329,-5.6308,-5.6502,-5.6502,-5.6632,-5.6633,-5.6634]}]]